CFG147 EIDW-EDDF

Flight info

Callsign CFG147
Flight time N/A
Altitude 41000
Route ENDEQ1E ENDEQ Q36 ALAVA Z195 MALUD UL975 WAL M16 DOLAS DCT NAVPI DCT NOLRU DCT DIXAT DIXAT1D
Aircraft A333/H-SDE3GHIJ2J3J5M1RVWXY/LB2D1

Departure

Time 2026-04-30 13:21
Airport Dublin Airport (EIDW)

Arrival

Time N/A
Airport Frankfurt Main Airport (EDDF)
Time Latitude Longitude Altitude Speed Heading
2026-04-30 12:38 53.42653 -6.24774 217 ft 0 kts 123°
2026-04-30 13:08 53.42655 -6.24779 217 ft 2 kts 123°
2026-04-30 13:08 53.42664 -6.24800 217 ft 2 kts 123°
2026-04-30 13:09 53.42672 -6.24821 217 ft 2 kts 123°
2026-04-30 13:09 53.42677 -6.24834 216 ft 2 kts 120°
2026-04-30 13:09 53.42681 -6.24859 216 ft 2 kts 81°
2026-04-30 13:09 53.42676 -6.24883 215 ft 2 kts 51°
2026-04-30 13:10 53.42665 -6.24900 215 ft 2 kts 21°
2026-04-30 13:10 53.42650 -6.24905 214 ft 2 kts 352°
2026-04-30 13:10 53.42640 -6.24901 214 ft 0 kts 331°
2026-04-30 13:10 53.42635 -6.24896 214 ft 0 kts 331°
2026-04-30 13:13 53.42636 -6.24897 214 ft 0 kts 331°
2026-04-30 13:14 53.42642 -6.24903 214 ft 2 kts 331°
2026-04-30 13:14 53.42672 -6.24931 214 ft 7 kts 329°
2026-04-30 13:14 53.42771 -6.25185 213 ft 20 kts 274°
2026-04-30 13:15 53.42709 -6.25416 214 ft 24 kts 230°
2026-04-30 13:15 53.42423 -6.25892 217 ft 16 kts 225°
2026-04-30 13:15 53.42331 -6.26046 220 ft 21 kts 225°
2026-04-30 13:16 53.42270 -6.26296 222 ft 25 kts 269°
2026-04-30 13:16 53.42284 -6.26615 228 ft 29 kts 275°
2026-04-30 13:16 53.42306 -6.26982 232 ft 33 kts 276°
2026-04-30 13:17 53.42363 -6.27863 240 ft 42 kts 277°
2026-04-30 13:17 53.42385 -6.28365 244 ft 38 kts 275°
2026-04-30 13:17 53.42401 -6.28690 247 ft 18 kts 275°
2026-04-30 13:18 53.42412 -6.28946 252 ft 25 kts 260°
2026-04-30 13:18 53.42230 -6.28804 247 ft 0 kts 95°
2026-04-30 13:20 53.42228 -6.28769 247 ft 18 kts 95°
2026-04-30 13:20 53.42188 -6.27988 240 ft 115 kts 95°
2026-04-30 13:20 53.42092 -6.26180 265 ft 190 kts 94°
2026-04-30 13:21 53.41987 -6.23813 920 ft 218 kts 94°
2026-04-30 13:21 53.41795 -6.21221 2207 ft 238 kts 99°
2026-04-30 13:21 53.41638 -6.18556 4039 ft 243 kts 100°
2026-04-30 13:22 53.41303 -6.12383 6852 ft 283 kts 99°
2026-04-30 13:22 53.41145 -6.09324 8891 ft 272 kts 100°
2026-04-30 13:22 53.40808 -6.01806 9853 ft 361 kts 96°
2026-04-30 13:23 53.40757 -5.97618 11418 ft 368 kts 95°
2026-04-30 13:23 53.40963 -5.88938 13952 ft 390 kts 88°
2026-04-30 13:24 53.42097 -5.80061 15763 ft 393 kts 72°
2026-04-30 13:24 53.43148 -5.71780 17220 ft 355 kts 90°
2026-04-30 13:25 53.43677 -5.63512 17867 ft 363 kts 89°
2026-04-30 13:25 53.44233 -5.55092 19349 ft 366 kts 89°
2026-04-30 13:26 53.44375 -5.42056 20493 ft 392 kts 97°
2026-04-30 13:26 53.44145 -5.32811 21416 ft 402 kts 98°
2026-04-30 13:27 53.43911 -5.23477 21336 ft 397 kts 98°
2026-04-30 13:28 53.43516 -5.09686 21337 ft 397 kts 98°
2026-04-30 13:28 53.43222 -5.00402 21483 ft 404 kts 98°
2026-04-30 13:28 53.43072 -4.95691 22255 ft 401 kts 98°
2026-04-30 13:29 53.42766 -4.86353 23346 ft 407 kts 98°
2026-04-30 13:29 53.42450 -4.76845 24304 ft 416 kts 98°
2026-04-30 13:30 53.41950 -4.62181 25745 ft 427 kts 97°
2026-04-30 13:31 53.41601 -4.52238 26689 ft 434 kts 97°
2026-04-30 13:31 53.41050 -4.36984 28043 ft 445 kts 97°
2026-04-30 13:32 53.40662 -4.26587 29012 ft 450 kts 98°
2026-04-30 13:32 53.40265 -4.16144 30135 ft 450 kts 98°
2026-04-30 13:33 53.39861 -4.05764 31350 ft 448 kts 98°
2026-04-30 13:33 53.39583 -3.95386 32408 ft 450 kts 90°
2026-04-30 13:34 53.39868 -3.90211 32910 ft 450 kts 90°
2026-04-30 13:34 53.40659 -3.74645 34415 ft 446 kts 90°
2026-04-30 13:35 53.40918 -3.69432 34877 ft 445 kts 89°
2026-04-30 13:35 53.41444 -3.59058 35129 ft 444 kts 86°
2026-04-30 13:36 53.43038 -3.48976 35183 ft 449 kts 78°
2026-04-30 13:36 53.45618 -3.33980 35179 ft 446 kts 80°
2026-04-30 13:37 53.46099 -3.28932 35166 ft 436 kts 95°
2026-04-30 13:37 53.44411 -3.19564 35200 ft 418 kts 126°
2026-04-30 13:38 53.39642 -3.07374 35172 ft 420 kts 117°
2026-04-30 13:38 53.38509 -2.97686 35209 ft 431 kts 101°
2026-04-30 13:39 53.37963 -2.87634 35190 ft 430 kts 99°
2026-04-30 13:40 53.37217 -2.72753 35191 ft 429 kts 99°
2026-04-30 13:40 53.36712 -2.62807 35198 ft 430 kts 99°
2026-04-30 13:41 53.36200 -2.52868 35201 ft 430 kts 99°
2026-04-30 13:41 53.35677 -2.42877 35211 ft 430 kts 99°
2026-04-30 13:42 53.35150 -2.32970 35214 ft 428 kts 100°
2026-04-30 13:42 53.34342 -2.18092 35216 ft 428 kts 100°
2026-04-30 13:43 53.33794 -2.08183 35227 ft 429 kts 100°
2026-04-30 13:43 53.33240 -1.98294 35218 ft 426 kts 100°
2026-04-30 13:44 53.32679 -1.88475 35217 ft 428 kts 99°
2026-04-30 13:44 53.32107 -1.78584 35212 ft 428 kts 99°
2026-04-30 13:45 53.31235 -1.63772 35220 ft 428 kts 99°
2026-04-30 13:46 53.30640 -1.53840 35219 ft 430 kts 99°
2026-04-30 13:46 53.30038 -1.43922 35228 ft 429 kts 99°
2026-04-30 13:47 53.29427 -1.34020 35231 ft 428 kts 100°
2026-04-30 13:47 53.28812 -1.24172 35237 ft 429 kts 100°
2026-04-30 13:48 53.28182 -1.14236 35248 ft 430 kts 100°
2026-04-30 13:48 53.27546 -1.04320 35251 ft 429 kts 99°
2026-04-30 13:49 53.26850 -0.94498 35239 ft 428 kts 103°
2026-04-30 13:49 53.25767 -0.84710 35249 ft 429 kts 103°
2026-04-30 13:50 53.24631 -0.75023 35253 ft 427 kts 106°
2026-04-30 13:50 53.22498 -0.60586 35253 ft 428 kts 106°
2026-04-30 13:51 53.21064 -0.50990 35252 ft 427 kts 106°
2026-04-30 13:51 53.19637 -0.41397 35254 ft 427 kts 106°
2026-04-30 13:52 53.18193 -0.31836 35260 ft 428 kts 107°
2026-04-30 13:52 53.16739 -0.22237 35267 ft 428 kts 107°
2026-04-30 13:53 53.15282 -0.12655 35271 ft 429 kts 107°
2026-04-30 13:53 53.13794 -0.03046 35277 ft 430 kts 107°
2026-04-30 13:54 53.12280 0.06578 35284 ft 429 kts 107°
2026-04-30 13:54 53.10417 0.15973 35285 ft 428 kts 111°
2026-04-30 13:55 53.08467 0.25309 35290 ft 428 kts 111°
2026-04-30 13:55 53.06514 0.34637 35287 ft 429 kts 111°
2026-04-30 13:56 53.04546 0.44022 35293 ft 429 kts 110°
2026-04-30 13:56 53.02589 0.53320 35291 ft 427 kts 110°
2026-04-30 13:57 53.00640 0.62591 35291 ft 427 kts 110°
2026-04-30 13:57 52.98682 0.71854 35293 ft 427 kts 111°
2026-04-30 13:58 52.95695 0.85733 35290 ft 428 kts 111°
2026-04-30 13:59 52.94114 0.95278 35298 ft 429 kts 104°
2026-04-30 13:59 52.92813 1.04908 35296 ft 430 kts 104°
2026-04-30 14:00 52.91475 1.14512 35297 ft 429 kts 105°
2026-04-30 14:00 52.89326 1.28897 35303 ft 429 kts 105°
2026-04-30 14:01 52.87767 1.38426 35308 ft 428 kts 108°
2026-04-30 14:01 52.85978 1.47801 35309 ft 429 kts 110°
2026-04-30 14:02 52.83996 1.57087 35303 ft 430 kts 110°
2026-04-30 14:02 52.82002 1.66399 35316 ft 431 kts 111°
2026-04-30 14:03 52.80006 1.75665 35316 ft 430 kts 111°
2026-04-30 14:03 52.78007 1.84883 35356 ft 429 kts 111°
2026-04-30 14:04 52.75984 1.94148 35328 ft 427 kts 111°
2026-04-30 14:04 52.73953 2.03415 35316 ft 430 kts 111°
2026-04-30 14:05 52.71924 2.12613 35307 ft 431 kts 111°
2026-04-30 14:05 52.69872 2.21857 35308 ft 430 kts 110°
2026-04-30 14:06 52.66980 2.34772 35310 ft 430 kts 110°
2026-04-30 14:07 52.63876 2.48542 35306 ft 429 kts 110°
2026-04-30 14:08 52.60652 2.62337 35301 ft 431 kts 111°
2026-04-30 14:08 52.57410 2.76050 35303 ft 431 kts 112°
2026-04-30 14:09 52.55222 2.85203 35306 ft 430 kts 112°
2026-04-30 14:10 52.51260 2.98393 35302 ft 431 kts 117°
2026-04-30 14:10 52.48576 3.07130 35305 ft 431 kts 116°
2026-04-30 14:11 52.45846 3.15941 35299 ft 431 kts 117°
2026-04-30 14:11 52.43051 3.24572 35303 ft 431 kts 117°
2026-04-30 14:12 52.40230 3.33234 35305 ft 431 kts 117°
2026-04-30 14:12 52.37393 3.41889 35307 ft 431 kts 117°
2026-04-30 14:13 52.34565 3.50495 35300 ft 432 kts 117°
2026-04-30 14:13 52.31725 3.59126 35296 ft 432 kts 117°
2026-04-30 14:14 52.28862 3.67796 35296 ft 433 kts 118°
2026-04-30 14:14 52.26017 3.76372 35291 ft 433 kts 118°
2026-04-30 14:15 52.23149 3.85044 35295 ft 434 kts 116°
2026-04-30 14:15 52.20508 3.93873 35296 ft 434 kts 115°
2026-04-30 14:16 52.17885 4.02731 35287 ft 433 kts 115°
2026-04-30 14:16 52.15268 4.11546 35290 ft 433 kts 115°
2026-04-30 14:17 52.12646 4.20351 35293 ft 434 kts 115°
2026-04-30 14:17 52.10005 4.29188 35291 ft 434 kts 115°
2026-04-30 14:18 52.07366 4.37985 35299 ft 434 kts 115°
2026-04-30 14:18 52.03382 4.51203 35304 ft 434 kts 115°
2026-04-30 14:19 51.99410 4.64311 35310 ft 433 kts 115°
2026-04-30 14:20 51.96751 4.73045 35310 ft 433 kts 115°
2026-04-30 14:20 51.92753 4.86122 35315 ft 434 kts 115°
2026-04-30 14:21 51.90064 4.94876 35315 ft 434 kts 115°
2026-04-30 14:22 51.86028 5.07958 35314 ft 433 kts 115°
2026-04-30 14:22 51.81983 5.20995 35318 ft 433 kts 115°
2026-04-30 14:23 51.76576 5.38318 35312 ft 434 kts 115°
2026-04-30 14:24 51.72489 5.51330 35313 ft 434 kts 115°
2026-04-30 14:25 51.67039 5.68571 35328 ft 434 kts 115°
2026-04-30 14:26 51.62929 5.81496 35325 ft 433 kts 115°
2026-04-30 14:27 51.58810 5.94383 35328 ft 433 kts 115°
2026-04-30 14:27 51.56044 6.02999 35326 ft 434 kts 115°
2026-04-30 14:28 51.51900 6.15848 35334 ft 434 kts 115°
2026-04-30 14:28 51.49239 6.24526 35325 ft 431 kts 108°
2026-04-30 14:29 51.44945 6.42450 35333 ft 431 kts 109°
2026-04-30 14:31 51.39437 6.64712 35336 ft 431 kts 109°
2026-04-30 14:31 51.36098 6.78101 35335 ft 431 kts 109°
2026-04-30 14:32 51.32966 6.91348 35455 ft 437 kts 126°
2026-04-30 14:32 51.30712 6.94564 35575 ft 446 kts 144°
2026-04-30 14:33 51.27874 6.96759 35542 ft 454 kts 150°
2026-04-30 14:33 51.22570 7.01881 35388 ft 447 kts 153°
2026-04-30 14:33 51.19688 7.03797 35327 ft 448 kts 150°
2026-04-30 14:34 51.16930 7.05930 34964 ft 442 kts 150°
2026-04-30 14:34 51.14176 7.08109 34046 ft 442 kts 146°
2026-04-30 14:34 51.11641 7.10747 32984 ft 444 kts 148°
2026-04-30 14:34 51.08868 7.12966 31830 ft 446 kts 143°
2026-04-30 14:35 51.03699 7.18293 29758 ft 450 kts 150°
2026-04-30 14:35 51.00840 7.20314 28767 ft 452 kts 154°
2026-04-30 14:35 50.97978 7.22271 27813 ft 448 kts 150°
2026-04-30 14:36 50.95223 7.24565 26891 ft 444 kts 148°